| time (UTC) | temp F | wind direction | speed MPH | gust MPH | rain 1hr in | rain 24hr in | rain mn in | humidity % | barometer mb |
| 20260510203905 | 57 | 261 | 3.0 | 5.0 | 0.00 | 0.00 | 0.00 | 36 | 1017.6 |
| 20260510203403 | 57 | 221 | 3.0 | 5.0 | 0.00 | 0.00 | 0.00 | 38 | 1017.7 |
| 20260510202902 | 57 | 285 | 3.0 | 3.0 | 0.00 | 0.00 | 0.00 | 36 | 1017.6 |
| 20260510202359 | 58 | 316 | 0.0 | 0.0 | 0.00 | 0.00 | 0.00 | 38 | 1017.9 |
| 20260510201855 | 58 | 335 | 1.0 | 2.0 | 0.00 | 0.00 | 0.00 | 37 | 1017.6 |
| 20260510201353 | 58 | 29 | 0.0 | 1.0 | 0.00 | 0.00 | 0.00 | 37 | 1017.6 |
| 20260510200849 | 57 | 294 | 4.0 | 6.0 | 0.00 | 0.00 | 0.00 | 36 | 1017.8 |
| 20260510200348 | 57 | 296 | 2.0 | 3.0 | 0.00 | 0.00 | 0.00 | 37 | 1017.9 |
| 20260510195843 | 57 | 296 | 3.0 | 5.0 | 0.00 | 0.00 | 0.00 | 36 | 1017.7 |
| 20260510195340 | 59 | 291 | 6.0 | 8.0 | 0.00 | 0.00 | 0.00 | 36 | 1017.7 |
| 20260510194834 | 58 | 275 | 1.0 | 2.0 | 0.00 | 0.00 | 0.00 | 36 | 1017.8 |
| 20260510194332 | 59 | 262 | 0.0 | 2.0 | 0.00 | 0.00 | 0.00 | 35 | 1018.0 |
| 20260510193827 | 58 | 282 | 4.0 | 6.0 | 0.00 | 0.00 | 0.00 | 37 | 1018.0 |
| 20260510193322 | 58 | 261 | 2.0 | 3.0 | 0.00 | 0.00 | 0.00 | 37 | 1018.1 |
| 20260510192818 | 58 | 258 | 1.0 | 1.0 | 0.00 | 0.00 | 0.00 | 37 | 1018.2 |
| 20260510192313 | 58 | 205 | 1.0 | 1.0 | 0.00 | 0.00 | 0.00 | 35 | 1018.3 |
| 20260510191810 | 59 | 210 | 5.0 | 6.0 | 0.00 | 0.00 | 0.00 | 35 | 1018.0 |
| 20260510191306 | 59 | 297 | 1.0 | 2.0 | 0.00 | 0.00 | 0.00 | 37 | 1018.0 |
| 20260510190804 | 57 | 327 | 4.0 | 5.0 | 0.00 | 0.00 | 0.00 | 36 | 1018.1 |
| 20260510190301 | 57 | 297 | 0.0 | 0.0 | 0.00 | 0.00 | 0.00 | 35 | 1018.1 |
| 20260510185757 | 55 | 286 | 2.0 | 3.0 | 0.00 | 0.00 | 0.00 | 38 | 1018.3 |
| 20260510185255 | 56 | 242 | 3.0 | 6.0 | 0.00 | 0.00 | 0.00 | 37 | 1018.1 |
| 20260510184752 | 56 | 307 | 11.0 | 13.0 | 0.00 | 0.00 | 0.00 | 36 | 1018.0 |
| 20260510184248 | 58 | 322 | 2.0 | 2.0 | 0.00 | 0.00 | 0.00 | 36 | 1017.8 |
| 20260510183743 | 57 | 269 | 3.0 | 6.0 | 0.00 | 0.00 | 0.00 | 37 | 1017.9 |
| 20260510183238 | 59 | 184 | 6.0 | 9.0 | 0.00 | 0.00 | 0.00 | 36 | 1018.0 |
| 20260510182735 | 58 | 293 | 5.0 | 6.0 | 0.00 | 0.00 | 0.00 | 37 | 1017.9 |
| 20260510182231 | 57 | 232 | 4.0 | 5.0 | 0.00 | 0.00 | 0.00 | 35 | 1018.0 |
| 20260510181728 | 56 | 277 | 1.0 | 3.0 | 0.00 | 0.00 | 0.00 | 37 | 1018.0 |
| 20260510181225 | 58 | 232 | 5.0 | 7.0 | 0.00 | 0.00 | 0.00 | 36 | 1017.7 |
| 20260510180721 | 58 | 281 | 5.0 | 6.0 | 0.00 | 0.00 | 0.00 | 36 | 1017.7 |
| 20260510180219 | 57 | 298 | 2.0 | 3.0 | 0.00 | 0.00 | 0.00 | 36 | 1017.8 |
| 20260510175714 | 58 | 339 | 7.0 | 9.0 | 0.00 | 0.00 | 0.00 | 36 | 1017.9 |
| 20260510175210 | 58 | 14 | 1.0 | 2.0 | 0.00 | 0.00 | 0.00 | 36 | 1017.6 |
| 20260510174708 | 59 | 325 | 2.0 | 6.0 | 0.00 | 0.00 | 0.00 | 36 | 1017.7 |
| 20260510174205 | 58 | 306 | 1.0 | 3.0 | 0.00 | 0.00 | 0.00 | 34 | 1017.7 |
| 20260510173701 | 57 | 315 | 4.0 | 9.0 | 0.00 | 0.00 | 0.00 | 39 | 1017.7 |
| 20260510173157 | 57 | 260 | 1.0 | 1.0 | 0.00 | 0.00 | 0.00 | 37 | 1017.8 |
| 20260510172652 | 56 | 326 | 5.0 | 6.0 | 0.00 | 0.00 | 0.00 | 36 | 1017.8 |
| 20260510172149 | 56 | 274 | 2.0 | 6.0 | 0.00 | 0.00 | 0.00 | 37 | 1017.8 |
| 20260510171646 | 57 | 244 | 10.0 | 14.0 | 0.00 | 0.00 | 0.00 | 36 | 1018.1 |
| 20260510171143 | 58 | 347 | 4.0 | 7.0 | 0.00 | 0.00 | 0.00 | 35 | 1018.0 |
| 20260510170639 | 56 | 73 | 1.0 | 3.0 | 0.00 | 0.00 | 0.00 | 38 | 1018.1 |
| 20260510170136 | 56 | 230 | 6.0 | 7.0 | 0.00 | 0.00 | 0.00 | 39 | 1018.3 |
| 20260510165632 | 57 | 244 | 0.0 | 1.0 | 0.00 | 0.00 | 0.00 | 39 | 1018.1 |
| 20260510165127 | 56 | 59 | 1.0 | 1.0 | 0.00 | 0.00 | 0.00 | 40 | 1018.0 |
| 20260510164625 | 56 | 242 | 2.0 | 2.0 | 0.00 | 0.00 | 0.00 | 39 | 1017.9 |
| 20260510164122 | 57 | 231 | 3.0 | 6.0 | 0.00 | 0.00 | 0.00 | 36 | 1018.0 |
| 20260510163617 | 55 | 285 | 6.0 | 9.0 | 0.00 | 0.00 | 0.00 | 38 | 1017.9 |
| 20260510163114 | 56 | 281 | 2.0 | 3.0 | 0.00 | 0.00 | 0.00 | 39 | 1018.2 |
| 20260510162608 | 55 | 149 | 0.0 | 1.0 | 0.00 | 0.00 | 0.00 | 40 | 1018.1 |
| 20260510162105 | 56 | 323 | 6.0 | 8.0 | 0.00 | 0.00 | 0.00 | 38 | 1018.1 |
| 20260510161601 | 56 | 261 | 2.0 | 3.0 | 0.00 | 0.00 | 0.00 | 41 | 1017.9 |
| 20260510161058 | 56 | 259 | 3.0 | 3.0 | 0.00 | 0.00 | 0.00 | 41 | 1018.1 |
| 20260510160555 | 54 | 77 | 0.0 | 0.0 | 0.00 | 0.00 | 0.00 | 43 | 1018.0 |
| 20260510160054 | 55 | 23 | 4.0 | 5.0 | 0.00 | 0.00 | 0.00 | 42 | 1018.1 |
| 20260510155551 | 55 | 339 | 3.0 | 5.0 | 0.00 | 0.00 | 0.00 | 40 | 1017.8 |
| 20260510155048 | 54 | 328 | 3.0 | 3.0 | 0.00 | 0.00 | 0.00 | 41 | 1018.0 |
| 20260510154543 | 54 | 285 | 4.0 | 6.0 | 0.00 | 0.00 | 0.00 | 41 | 1017.8 |
| 20260510154039 | 53 | 260 | 3.0 | 5.0 | 0.00 | 0.00 | 0.00 | 42 | 1017.8 |
| 20260510153534 | 54 | 262 | 1.0 | 1.0 | 0.00 | 0.00 | 0.00 | 42 | 1017.8 |
| 20260510153031 | 54 | 293 | 5.0 | 8.0 | 0.00 | 0.00 | 0.00 | 42 | 1017.5 |
| 20260510152528 | 55 | 355 | 0.0 | 1.0 | 0.00 | 0.00 | 0.00 | 42 | 1017.6 |
| 20260510152024 | 54 | 294 | 2.0 | 2.0 | 0.00 | 0.00 | 0.00 | 43 | 1018.0 |
| 20260510151521 | 54 | 10 | 3.0 | 3.0 | 0.00 | 0.00 | 0.00 | 44 | 1017.5 |
| 20260510151019 | 52 | 307 | 0.0 | 0.0 | 0.00 | 0.00 | 0.00 | 45 | 1017.5 |
| 20260510150513 | 53 | 345 | 0.0 | 0.0 | 0.00 | 0.00 | 0.00 | 44 | 1017.5 |
| 20260510150010 | 53 | 205 | 2.0 | 3.0 | 0.00 | 0.00 | 0.00 | 47 | 1017.6 |
| 20260510145507 | 52 | 284 | 3.0 | 5.0 | 0.00 | 0.00 | 0.00 | 46 | 1017.6 |
| 20260510145003 | 52 | 338 | 6.0 | 7.0 | 0.00 | 0.00 | 0.00 | 45 | 1017.7 |
| 20260510144500 | 52 | 307 | 4.0 | 6.0 | 0.00 | 0.00 | 0.00 | 44 | 1017.6 |
| 20260510143955 | 52 | 49 | 0.0 | 2.0 | 0.00 | 0.00 | 0.00 | 47 | 1017.4 |
| 20260510143451 | 52 | 329 | 0.0 | 0.0 | 0.00 | 0.00 | 0.00 | 47 | 1017.6 |
| 20260510142947 | 51 | 13 | 0.0 | 0.0 | 0.00 | 0.00 | 0.00 | 48 | 1017.6 |
| 20260510142439 | 51 | 301 | 4.0 | 5.0 | 0.00 | 0.00 | 0.00 | 48 | 1017.4 |
| 20260510141935 | 51 | 321 | 3.0 | 3.0 | 0.00 | 0.00 | 0.00 | 49 | 1017.4 |
| 20260510141432 | 50 | 303 | 5.0 | 7.0 | 0.00 | 0.00 | 0.00 | 49 | 1017.4 |
| 20260510140929 | 51 | 44 | 1.0 | 2.0 | 0.00 | 0.00 | 0.00 | 47 | 1017.4 |
| 20260510140426 | 50 | 283 | 0.0 | 1.0 | 0.00 | 0.00 | 0.00 | 50 | 1017.4 |
| 20260510135925 | 50 | 225 | 2.0 | 3.0 | 0.00 | 0.00 | 0.00 | 48 | 1017.4 |
| 20260510135421 | 50 | 301 | 0.0 | 1.0 | 0.00 | 0.00 | 0.00 | 50 | 1017.2 |
| 20260510134918 | 51 | 330 | 1.0 | 1.0 | 0.00 | 0.00 | 0.00 | 48 | 1017.4 |
| 20260510134415 | 50 | 351 | 0.0 | 0.0 | 0.00 | 0.00 | 0.00 | 51 | 1017.5 |
| 20260510133911 | 50 | 268 | 3.0 | 3.0 | 0.00 | 0.00 | 0.00 | 49 | 1017.1 |
| 20260510133408 | 50 | 311 | 1.0 | 2.0 | 0.00 | 0.00 | 0.00 | 49 | 1017.2 |
| 20260510132903 | 50 | 285 | 0.0 | 0.0 | 0.00 | 0.00 | 0.00 | 52 | 1017.0 |
| 20260510132401 | 50 | 26 | 0.0 | 0.0 | 0.00 | 0.00 | 0.00 | 52 | 1016.8 |
| 20260510131858 | 49 | 315 | 0.0 | 0.0 | 0.00 | 0.00 | 0.00 | 51 | 1016.9 |
| 20260510131355 | 49 | 300 | 0.0 | 0.0 | 0.00 | 0.00 | 0.00 | 51 | 1016.8 |
| 20260510130852 | 49 | 326 | 2.0 | 5.0 | 0.00 | 0.00 | 0.00 | 51 | 1016.9 |
| 20260510130349 | 49 | 216 | 0.0 | 0.0 | 0.00 | 0.00 | 0.00 | 53 | 1016.8 |
| 20260510125846 | 48 | 281 | 0.0 | 0.0 | 0.00 | 0.00 | 0.00 | 53 | 1016.6 |
| 20260510125342 | 48 | 267 | 0.0 | 1.0 | 0.00 | 0.00 | 0.00 | 57 | 1016.8 |
| 20260510124839 | 47 | 228 | 0.0 | 0.0 | 0.00 | 0.00 | 0.00 | 56 | 1016.6 |
| 20260510124335 | 48 | 216 | 2.0 | 2.0 | 0.00 | 0.00 | 0.00 | 59 | 1016.6 |
| 20260510123831 | 46 | 283 | 0.0 | 0.0 | 0.00 | 0.00 | 0.00 | 64 | 1016.7 |
| 20260510123327 | 46 | 346 | 2.0 | 2.0 | 0.00 | 0.00 | 0.00 | 63 | 1016.7 |
| 20260510122823 | 46 | 337 | 1.0 | 1.0 | 0.00 | 0.00 | 0.00 | 65 | 1016.6 |
| 20260510122320 | 45 | 246 | 0.0 | 0.0 | 0.00 | 0.00 | 0.00 | 67 | 1016.6 |
| 20260510121816 | 45 | 225 | 1.0 | 1.0 | 0.00 | 0.00 | 0.00 | 69 | 1016.5 |
| 20260510121314 | 44 | 226 | 1.0 | 1.0 | 0.00 | 0.00 | 0.00 | 70 | 1016.3 |
| 20260510120811 | 44 | 285 | 1.0 | 2.0 | 0.00 | 0.00 | 0.00 | 72 | 1016.3 |
| 20260510120307 | 43 | 311 | 0.0 | 0.0 | 0.00 | 0.00 | 0.00 | 74 | 1016.1 |
| 20260510115803 | 42 | 288 | 1.0 | 2.0 | 0.00 | 0.00 | 0.00 | 74 | 1016.1 |
| 20260510115305 | 42 | 233 | 2.0 | 2.0 | 0.00 | 0.00 | 0.00 | 75 | 1016.2 |
| 20260510114756 | 41 | 290 | 2.0 | 2.0 | 0.00 | 0.00 | 0.00 | 76 | 1016.1 |
| 20260510114253 | 41 | 218 | 0.0 | 0.0 | 0.00 | 0.00 | 0.00 | 77 | 1016.2 |
| 20260510113748 | 40 | 281 | 1.0 | 2.0 | 0.00 | 0.00 | 0.00 | 77 | 1016.1 |
| 20260510113246 | 40 | 283 | 1.0 | 1.0 | 0.00 | 0.00 | 0.00 | 78 | 1016.0 |
| 20260510112742 | 39 | 253 | 0.0 | 0.0 | 0.00 | 0.00 | 0.00 | 81 | 1016.0 |
| 20260510112238 | 37 | 287 | 0.0 | 0.0 | 0.00 | 0.00 | 0.00 | 88 | 1015.8 |
| 20260510111734 | 37 | 293 | 0.0 | 0.0 | 0.00 | 0.00 | 0.00 | 91 | 1015.9 |
| 20260510111232 | 36 | 294 | 0.0 | 0.0 | 0.00 | 0.00 | 0.00 | 93 | 1015.7 |
| 20260510110731 | 35 | 294 | 0.0 | 0.0 | 0.00 | 0.00 | 0.00 | 95 | 1015.9 |
| 20260510110229 | 34 | 292 | 0.0 | 0.0 | 0.00 | 0.00 | 0.00 | 96 | 1015.8 |
| 20260510105728 | 34 | 280 | 0.0 | 0.0 | 0.00 | 0.00 | 0.00 | 96 | 1015.5 |
| 20260510105224 | 33 | 283 | 0.0 | 0.0 | 0.00 | 0.00 | 0.00 | 96 | 1015.6 |
| 20260510104720 | 33 | 283 | 0.0 | 0.0 | 0.00 | 0.00 | 0.00 | 96 | 1015.6 |
| 20260510104218 | 33 | 284 | 0.0 | 0.0 | 0.00 | 0.00 | 0.00 | 96 | 1015.3 |
| 20260510103714 | 33 | 284 | 0.0 | 0.0 | 0.00 | 0.00 | 0.00 | 95 | 1015.4 |
| 20260510103212 | 33 | 284 | 0.0 | 0.0 | 0.00 | 0.00 | 0.00 | 95 | 1015.1 |
| 20260510102711 | 33 | 284 | 0.0 | 0.0 | 0.00 | 0.00 | 0.00 | 95 | 1014.9 |
| 20260510102207 | 33 | 285 | 0.0 | 0.0 | 0.00 | 0.00 | 0.00 | 94 | 1015.0 |
| 20260510101705 | 33 | 285 | 0.0 | 0.0 | 0.00 | 0.00 | 0.00 | 94 | 1015.0 |
| 20260510101203 | 34 | 281 | 0.0 | 0.0 | 0.00 | 0.00 | 0.00 | 93 | 1014.8 |
| 20260510100658 | 34 | 280 | 0.0 | 0.0 | 0.00 | 0.00 | 0.00 | 93 | 1014.4 |
| 20260510100157 | 34 | 284 | 0.0 | 0.0 | 0.00 | 0.00 | 0.00 | 93 | 1014.7 |
| 20260510095652 | 34 | 284 | 0.0 | 0.0 | 0.00 | 0.00 | 0.00 | 93 | 1014.6 |
| 20260510095147 | 34 | 284 | 0.0 | 0.0 | 0.00 | 0.00 | 0.00 | 92 | 1014.5 |
| 20260510094646 | 35 | 280 | 0.0 | 0.0 | 0.00 | 0.00 | 0.00 | 91 | 1014.6 |
| 20260510094142 | 35 | 280 | 0.0 | 0.0 | 0.00 | 0.00 | 0.00 | 91 | 1014.7 |
| 20260510093638 | 35 | 284 | 0.0 | 0.0 | 0.00 | 0.00 | 0.00 | 91 | 1014.3 |
| 20260510093135 | 35 | 284 | 0.0 | 0.0 | 0.00 | 0.00 | 0.00 | 91 | 1014.4 |
| 20260510092632 | 34 | 318 | 0.0 | 0.0 | 0.00 | 0.00 | 0.00 | 90 | 1014.6 |
| 20260510092127 | 35 | 318 | 0.0 | 0.0 | 0.00 | 0.00 | 0.00 | 89 | 1014.5 |
| 20260510091623 | 36 | 334 | 0.0 | 0.0 | 0.00 | 0.00 | 0.00 | 88 | 1014.3 |
| 20260510091120 | 36 | 281 | 0.0 | 0.0 | 0.00 | 0.00 | 0.00 | 88 | 1014.4 |
| 20260510090617 | 36 | 280 | 0.0 | 0.0 | 0.00 | 0.00 | 0.00 | 88 | 1014.3 |
| 20260510090113 | 36 | 280 | 0.0 | 0.0 | 0.00 | 0.00 | 0.00 | 87 | 1014.2 |
| 20260510085608 | 36 | 281 | 0.0 | 0.0 | 0.00 | 0.00 | 0.00 | 86 | 1014.1 |
| 20260510085104 | 36 | 280 | 0.0 | 0.0 | 0.00 | 0.00 | 0.00 | 86 | 1013.7 |
| 20260510084600 | 37 | 280 | 0.0 | 0.0 | 0.00 | 0.00 | 0.00 | 85 | 1013.7 |
| 20260510084057 | 37 | 280 | 0.0 | 0.0 | 0.00 | 0.00 | 0.00 | 84 | 1013.7 |
| 20260510083553 | 37 | 280 | 0.0 | 0.0 | 0.00 | 0.00 | 0.00 | 83 | 1013.5 |
| 20260510083050 | 37 | 280 | 0.0 | 0.0 | 0.00 | 0.00 | 0.00 | 82 | 1013.4 |
| 20260510082547 | 38 | 280 | 0.0 | 0.0 | 0.00 | 0.00 | 0.00 | 81 | 1013.6 |
| 20260510082042 | 38 | 281 | 0.0 | 0.0 | 0.00 | 0.00 | 0.00 | 80 | 1013.4 |
| 20260510081537 | 39 | 269 | 0.0 | 0.0 | 0.00 | 0.00 | 0.00 | 79 | 1013.6 |
| 20260510081033 | 39 | 280 | 0.0 | 0.0 | 0.00 | 0.00 | 0.00 | 77 | 1013.3 |
| 20260510080532 | 39 | 302 | 0.0 | 0.0 | 0.00 | 0.00 | 0.00 | 76 | 1013.1 |
| 20260510080030 | 39 | 287 | 0.0 | 0.0 | 0.00 | 0.00 | 0.00 | 75 | 1012.7 |
| 20260510075527 | 40 | 263 | 0.0 | 0.0 | 0.00 | 0.00 | 0.00 | 75 | 1012.6 |
| 20260510075023 | 40 | 267 | 0.0 | 0.0 | 0.00 | 0.00 | 0.00 | 74 | 1012.7 |
| 20260510074521 | 41 | 280 | 0.0 | 0.0 | 0.00 | 0.00 | 0.00 | 72 | 1012.9 |
| 20260510074016 | 41 | 281 | 0.0 | 0.0 | 0.00 | 0.00 | 0.00 | 70 | 1012.6 |
| 20260510073513 | 42 | 293 | 0.0 | 0.0 | 0.00 | 0.00 | 0.00 | 69 | 1012.6 |
| 20260510073010 | 42 | 305 | 0.0 | 0.0 | 0.00 | 0.00 | 0.00 | 68 | 1012.5 |
| 20260510072506 | 42 | 299 | 0.0 | 0.0 | 0.00 | 0.00 | 0.00 | 67 | 1012.3 |
| 20260510072002 | 42 | 314 | 1.0 | 1.0 | 0.00 | 0.00 | 0.00 | 67 | 1012.4 |
| 20260510071458 | 42 | 283 | 0.0 | 0.0 | 0.00 | 0.00 | 0.00 | 67 | 1012.3 |
| 20260510070957 | 42 | 45 | 0.0 | 0.0 | 0.00 | 0.00 | 0.00 | 67 | 1012.3 |
| 20260510070453 | 43 | 330 | 0.0 | 0.0 | 0.00 | 0.00 | 0.00 | 67 | 1012.0 |
| 20260510065949 | 43 | 307 | 0.0 | 0.0 | 0.00 | 0.00 | 0.00 | 67 | 1012.3 |
| 20260510065447 | 43 | 282 | 1.0 | 1.0 | 0.00 | 0.00 | 0.00 | 66 | 1012.1 |
| 20260510064942 | 43 | 312 | 0.0 | 0.0 | 0.00 | 0.00 | 0.00 | 65 | 1012.2 |
| 20260510064440 | 43 | 29 | 1.0 | 2.0 | 0.00 | 0.00 | 0.00 | 65 | 1011.9 |
| 20260510063936 | 44 | 344 | 0.0 | 0.0 | 0.00 | 0.00 | 0.00 | 64 | 1012.0 |
| 20260510063432 | 44 | 5 | 2.0 | 3.0 | 0.00 | 0.00 | 0.00 | 65 | 1011.9 |
| 20260510062930 | 44 | 330 | 0.0 | 1.0 | 0.00 | 0.00 | 0.00 | 64 | 1011.5 |
| 20260510062425 | 44 | 43 | 1.0 | 2.0 | 0.00 | 0.00 | 0.00 | 64 | 1011.6 |
| 20260510061921 | 44 | 23 | 2.0 | 2.0 | 0.00 | 0.00 | 0.00 | 64 | 1011.6 |
| 20260510061418 | 44 | 301 | 0.0 | 0.0 | 0.00 | 0.00 | 0.00 | 65 | 1011.6 |
| 20260510060914 | 44 | 308 | 2.0 | 2.0 | 0.00 | 0.00 | 0.00 | 65 | 1011.8 |
| 20260510060410 | 44 | 313 | 1.0 | 1.0 | 0.00 | 0.00 | 0.00 | 66 | 1011.5 |
| 20260510055907 | 45 | 315 | 0.0 | 0.0 | 0.00 | 0.00 | 0.00 | 65 | 1011.1 |
| 20260510055403 | 45 | 5 | 1.0 | 1.0 | 0.00 | 0.00 | 0.00 | 64 | 1011.2 |
| 20260510054901 | 45 | 302 | 1.0 | 2.0 | 0.00 | 0.00 | 0.00 | 64 | 1011.3 |
| 20260510054356 | 46 | 32 | 1.0 | 1.0 | 0.00 | 0.00 | 0.00 | 64 | 1011.0 |
| 20260510053851 | 46 | 321 | 1.0 | 1.0 | 0.00 | 0.00 | 0.00 | 65 | 1011.2 |
| 20260510053347 | 46 | 319 | 0.0 | 0.0 | 0.00 | 0.00 | 0.00 | 65 | 1011.0 |
| 20260510052844 | 46 | 314 | 0.0 | 0.0 | 0.00 | 0.00 | 0.00 | 64 | 1010.7 |
| 20260510052339 | 47 | 314 | 0.0 | 0.0 | 0.00 | 0.00 | 0.00 | 64 | 1010.7 |
| 20260510051836 | 47 | 23 | 1.0 | 2.0 | 0.00 | 0.00 | 0.00 | 64 | 1010.9 |
| 20260510051332 | 47 | 49 | 1.0 | 2.0 | 0.00 | 0.00 | 0.00 | 64 | 1010.6 |
| 20260510050830 | 48 | 336 | 2.0 | 2.0 | 0.00 | 0.00 | 0.00 | 64 | 1010.7 |
| 20260510050326 | 48 | 49 | 1.0 | 2.0 | 0.00 | 0.00 | 0.00 | 64 | 1010.5 |
| 20260510045823 | 48 | 338 | 1.0 | 1.0 | 0.00 | 0.00 | 0.00 | 64 | 1010.2 |
| 20260510045320 | 48 | 357 | 0.0 | 1.0 | 0.00 | 0.00 | 0.00 | 64 | 1010.2 |
| 20260510044817 | 48 | 9 | 0.0 | 1.0 | 0.00 | 0.00 | 0.00 | 65 | 1010.2 |
| 20260510044314 | 48 | 13 | 3.0 | 3.0 | 0.00 | 0.00 | 0.00 | 67 | 1010.3 |
| 20260510043810 | 47 | 296 | 1.0 | 1.0 | 0.00 | 0.00 | 0.00 | 71 | 1010.2 |
| 20260510043306 | 47 | 311 | 0.0 | 0.0 | 0.00 | 0.00 | 0.00 | 72 | 1009.8 |
| 20260510042804 | 47 | 322 | 0.0 | 0.0 | 0.00 | 0.00 | 0.00 | 71 | 1009.7 |
| 20260510042259 | 47 | 311 | 0.0 | 0.0 | 0.00 | 0.00 | 0.00 | 72 | 1009.6 |
| 20260510041756 | 47 | 305 | 0.0 | 0.0 | 0.00 | 0.00 | 0.00 | 73 | 1009.6 |
| 20260510041253 | 46 | 311 | 0.0 | 0.0 | 0.00 | 0.00 | 0.00 | 75 | 1009.4 |
| 20260510040750 | 46 | 323 | 0.0 | 0.0 | 0.00 | 0.00 | 0.00 | 77 | 1009.4 |
| 20260510040242 | 47 | 303 | 0.0 | 0.0 | 0.00 | 0.00 | 0.00 | 76 | 1009.3 |
| 20260510035737 | 47 | 338 | 0.0 | 0.0 | 0.00 | 0.07 | 0.07 | 75 | 1009.3 |
| 20260510035233 | 47 | 338 | 0.0 | 0.0 | 0.00 | 0.07 | 0.07 | 73 | 1009.1 |
| 20260510034729 | 48 | 343 | 0.0 | 0.0 | 0.00 | 0.07 | 0.07 | 73 | 1009.0 |
| 20260510034228 | 48 | 343 | 0.0 | 0.0 | 0.00 | 0.07 | 0.07 | 70 | 1008.8 |
| 20260510033723 | 49 | 343 | 0.0 | 0.0 | 0.00 | 0.07 | 0.07 | 69 | 1008.8 |
| 20260510033221 | 50 | 348 | 0.0 | 0.0 | 0.00 | 0.07 | 0.07 | 68 | 1008.8 |
| 20260510032717 | 50 | 356 | 0.0 | 0.0 | 0.00 | 0.07 | 0.07 | 68 | 1008.6 |
| 20260510032213 | 50 | 342 | 0.0 | 0.0 | 0.00 | 0.07 | 0.07 | 69 | 1008.5 |
| 20260510031708 | 50 | 294 | 0.0 | 0.0 | 0.00 | 0.07 | 0.07 | 68 | 1008.4 |
| 20260510031205 | 51 | 345 | 0.0 | 0.0 | 0.00 | 0.07 | 0.07 | 67 | 1008.7 |
| 20260510030704 | 51 | 332 | 0.0 | 0.0 | 0.00 | 0.07 | 0.07 | 66 | 1008.2 |
| 20260510030202 | 51 | 336 | 0.0 | 0.0 | 0.00 | 0.07 | 0.07 | 65 | 1007.9 |
| 20260510025659 | 52 | 27 | 0.0 | 0.0 | 0.00 | 0.07 | 0.07 | 65 | 1008.1 |
| 20260510025156 | 53 | 31 | 0.0 | 0.0 | 0.00 | 0.07 | 0.07 | 62 | 1008.0 |
| 20260510024653 | 53 | 350 | 0.0 | 0.0 | 0.00 | 0.07 | 0.07 | 61 | 1008.0 |
| 20260510024150 | 54 | 342 | 0.0 | 0.0 | 0.00 | 0.07 | 0.07 | 60 | 1007.7 |
| 20260510023645 | 54 | 341 | 0.0 | 0.0 | 0.00 | 0.07 | 0.07 | 60 | 1007.8 |
| 20260510023143 | 55 | 347 | 0.0 | 1.0 | 0.00 | 0.07 | 0.07 | 58 | 1007.6 |
| 20260510022637 | 55 | 349 | 1.0 | 1.0 | 0.00 | 0.07 | 0.07 | 57 | 1007.8 |
| 20260510022132 | 56 | 26 | 1.0 | 2.0 | 0.00 | 0.07 | 0.07 | 56 | 1007.6 |
| 20260510021628 | 57 | 292 | 1.0 | 2.0 | 0.00 | 0.07 | 0.07 | 52 | 1007.4 |
| 20260510021126 | 57 | 71 | 1.0 | 2.0 | 0.00 | 0.07 | 0.07 | 52 | 1007.1 |
| 20260510020620 | 57 | 320 | 3.0 | 5.0 | 0.00 | 0.07 | 0.07 | 52 | 1007.1 |
| 20260510020115 | 57 | 291 | 2.0 | 2.0 | 0.00 | 0.07 | 0.07 | 51 | 1007.1 |
| 20260510015612 | 58 | 280 | 1.0 | 1.0 | 0.00 | 0.07 | 0.07 | 51 | 1006.6 |
| 20260510015109 | 58 | 341 | 5.0 | 6.0 | 0.00 | 0.07 | 0.07 | 50 | 1006.7 |
| 20260510014604 | 58 | 270 | 2.0 | 2.0 | 0.00 | 0.07 | 0.07 | 51 | 1006.4 |
| 20260510014102 | 58 | 319 | 2.0 | 3.0 | 0.00 | 0.07 | 0.07 | 51 | 1006.5 |
| 20260510013556 | 58 | 313 | 2.0 | 3.0 | 0.00 | 0.07 | 0.07 | 51 | 1006.2 |
| 20260510013052 | 58 | 328 | 5.0 | 7.0 | 0.00 | 0.07 | 0.07 | 51 | 1005.9 |
| 20260510012551 | 58 | 294 | 1.0 | 1.0 | 0.00 | 0.07 | 0.07 | 51 | 1006.0 |
| 20260510012048 | 58 | 294 | 1.0 | 1.0 | 0.00 | 0.07 | 0.07 | 51 | 1005.7 |
| 20260510011548 | 58 | 273 | 1.0 | 1.0 | 0.00 | 0.07 | 0.07 | 50 | 1005.7 |
| 20260510011044 | 59 | 327 | 5.0 | 8.0 | 0.00 | 0.07 | 0.07 | 50 | 1005.3 |
| 20260510010541 | 59 | 256 | 1.0 | 1.0 | 0.00 | 0.07 | 0.07 | 50 | 1005.5 |
| 20260510010038 | 59 | 303 | 3.0 | 5.0 | 0.00 | 0.07 | 0.07 | 49 | 1005.3 |
| 20260510005533 | 59 | 311 | 1.0 | 1.0 | 0.00 | 0.07 | 0.07 | 49 | 1005.2 |
| 20260510005031 | 59 | 267 | 2.0 | 5.0 | 0.00 | 0.07 | 0.07 | 48 | 1005.2 |
| 20260510004529 | 59 | 34 | 4.0 | 5.0 | 0.00 | 0.07 | 0.07 | 48 | 1004.9 |
| 20260510004026 | 60 | 328 | 5.0 | 7.0 | 0.00 | 0.07 | 0.07 | 47 | 1004.9 |
| 20260510003517 | 60 | 17 | 5.0 | 7.0 | 0.00 | 0.07 | 0.07 | 47 | 1004.7 |
| 20260510003013 | 61 | 297 | 7.0 | 10.0 | 0.00 | 0.07 | 0.07 | 45 | 1004.7 |
| 20260510002508 | 61 | 311 | 2.0 | 2.0 | 0.00 | 0.07 | 0.07 | 44 | 1004.5 |
| 20260510002005 | 62 | 330 | 4.0 | 6.0 | 0.00 | 0.07 | 0.07 | 43 | 1004.3 |
| 20260510001503 | 62 | 285 | 2.0 | 3.0 | 0.00 | 0.07 | 0.07 | 43 | 1004.1 |
| 20260510001001 | 62 | 299 | 1.0 | 2.0 | 0.00 | 0.07 | 0.07 | 42 | 1003.9 |
| 20260510000456 | 63 | 278 | 7.0 | 9.0 | 0.00 | 0.07 | 0.07 | 42 | 1003.7 |
| 20260509235953 | 63 | 254 | 2.0 | 3.0 | 0.00 | 0.07 | 0.07 | 43 | 1003.6 |
| 20260509235450 | 63 | 329 | 3.0 | 5.0 | 0.00 | 0.07 | 0.07 | 42 | 1003.5 |
| 20260509234946 | 64 | 211 | 4.0 | 6.0 | 0.00 | 0.07 | 0.07 | 42 | 1003.5 |
| 20260509234443 | 64 | 275 | 3.0 | 3.0 | 0.00 | 0.07 | 0.07 | 42 | 1003.5 |
| 20260509233941 | 64 | 268 | 4.0 | 5.0 | 0.00 | 0.07 | 0.07 | 42 | 1003.2 |
| 20260509233438 | 64 | 206 | 8.0 | 10.0 | 0.00 | 0.07 | 0.07 | 41 | 1003.2 |
| 20260509232934 | 64 | 251 | 1.0 | 3.0 | 0.00 | 0.07 | 0.07 | 41 | 1003.2 |
| 20260509232432 | 65 | 240 | 4.0 | 7.0 | 0.00 | 0.07 | 0.07 | 42 | 1002.9 |
| 20260509231927 | 65 | 270 | 2.0 | 5.0 | 0.00 | 0.07 | 0.07 | 41 | 1003.0 |
| 20260509231424 | 66 | 324 | 9.0 | 13.0 | 0.00 | 0.07 | 0.07 | 40 | 1002.8 |
| 20260509230923 | 65 | 258 | 7.0 | 10.0 | 0.00 | 0.07 | 0.07 | 40 | 1002.7 |
| 20260509230419 | 66 | 135 | 2.0 | 3.0 | 0.00 | 0.07 | 0.07 | 40 | 1002.8 |
| 20260509225915 | 66 | 289 | 7.0 | 11.0 | 0.00 | 0.07 | 0.07 | 39 | 1002.8 |
| 20260509225412 | 66 | 222 | 7.0 | 9.0 | 0.00 | 0.07 | 0.07 | 39 | 1002.7 |
| 20260509224908 | 66 | 258 | 5.0 | 6.0 | 0.00 | 0.07 | 0.07 | 39 | 1002.8 |
| 20260509224403 | 66 | 264 | 3.0 | 7.0 | 0.00 | 0.07 | 0.07 | 39 | 1002.9 |
| 20260509223901 | 66 | 259 | 3.0 | 5.0 | 0.00 | 0.07 | 0.07 | 39 | 1002.7 |
| 20260509223357 | 67 | 320 | 2.0 | 5.0 | 0.00 | 0.07 | 0.07 | 39 | 1002.5 |
| 20260509222854 | 66 | 297 | 4.0 | 7.0 | 0.00 | 0.07 | 0.07 | 39 | 1002.6 |
| 20260509222349 | 66 | 329 | 6.0 | 8.0 | 0.00 | 0.07 | 0.07 | 38 | 1002.6 |
| 20260509221844 | 66 | 253 | 5.0 | 8.0 | 0.00 | 0.07 | 0.07 | 38 | 1002.5 |
| 20260509221342 | 66 | 293 | 0.0 | 0.0 | 0.00 | 0.07 | 0.07 | 39 | 1002.6 |
| 20260509220837 | 66 | 274 | 2.0 | 3.0 | 0.00 | 0.07 | 0.07 | 41 | 1002.4 |
| 20260509220334 | 66 | 251 | 10.0 | 14.0 | 0.00 | 0.07 | 0.07 | 40 | 1002.3 |
| 20260509215829 | 67 | 312 | 3.0 | 5.0 | 0.00 | 0.07 | 0.07 | 41 | 1002.2 |
| 20260509215326 | 67 | 154 | 4.0 | 6.0 | 0.00 | 0.07 | 0.07 | 40 | 1002.3 |
| 20260509214823 | 67 | 238 | 6.0 | 8.0 | 0.00 | 0.07 | 0.07 | 40 | 1001.9 |
| 20260509214320 | 66 | 319 | 9.0 | 17.0 | 0.00 | 0.07 | 0.07 | 40 | 1001.9 |
| 20260509213817 | 67 | 295 | 8.0 | 10.0 | 0.00 | 0.07 | 0.07 | 40 | 1001.9 |
| 20260509213312 | 67 | 240 | 7.0 | 9.0 | 0.00 | 0.07 | 0.07 | 39 | 1001.8 |
| 20260509212810 | 67 | 293 | 9.0 | 10.0 | 0.00 | 0.07 | 0.07 | 40 | 1001.9 |
| 20260509212308 | 68 | 297 | 2.0 | 6.0 | 0.00 | 0.07 | 0.07 | 39 | 1001.8 |
| 20260509211803 | 68 | 263 | 10.0 | 13.0 | 0.00 | 0.07 | 0.07 | 40 | 1001.8 |
| 20260509211259 | 67 | 265 | 7.0 | 10.0 | 0.00 | 0.07 | 0.07 | 40 | 1001.6 |
| 20260509210756 | 67 | 271 | 9.0 | 11.0 | 0.00 | 0.07 | 0.07 | 41 | 1001.5 |
| 20260509210254 | 67 | 341 | 13.0 | 18.0 | 0.00 | 0.07 | 0.07 | 41 | 1001.5 |
| 20260509205753 | 67 | 223 | 8.0 | 11.0 | 0.00 | 0.07 | 0.07 | 42 | 1001.3 |
| 20260509205248 | 67 | 241 | 7.0 | 10.0 | 0.00 | 0.07 | 0.07 | 44 | 1001.6 |
| 20260509204744 | 67 | 269 | 7.0 | 9.0 | 0.00 | 0.07 | 0.07 | 42 | 1001.5 |